When you browse on this site, cookies collect data to enhance your experience and personalize the content and advertising you see.
Visit our Privacy Policy to learn more. By continuing to use the site, you agree to this use of cookies and data.
  • In Latvia
  • List of Countries
  • For 7 days
  • Water Temperature
  • Weather Map
  • Weather Widgets
  • user-avatar
    Login

    Hourly Weather Kalgoorlie

    Today, 20 August, Tuesday

    Time Temperature Precipitation Wind Pressure Humidity
    00:00 +10°C° 0 mm 3 mps 743 mmHg 53%
    01:00 +10°C° 0 mm 3 mps 743 mmHg 55%
    02:00 +9°C° 0 mm 3 mps 743 mmHg 58%
    03:00 +9°C° 0 mm 3 mps 743 mmHg 59%
    04:00 +8°C° 0 mm 3 mps 743 mmHg 61%
    05:00 +8°C° 0 mm 3 mps 743 mmHg 63%
    06:00 +9°C° 0 mm 3 mps 743 mmHg 61%
    07:00 +9°C° 0 mm 3 mps 744 mmHg 59%
    08:00 +10°C° 0 mm 3 mps 744 mmHg 56%
    09:00 +12°C° 0 mm 3 mps 744 mmHg 51%
    10:00 +13°C° 0 mm 3 mps 743 mmHg 46%
    11:00 +16°C° 0 mm 3 mps 743 mmHg 41%
    12:00 +17°C° 0 mm 3 mps 743 mmHg 38%
    13:00 +18°C° 0 mm 4 mps 742 mmHg 35%
    14:00 +19°C° 0 mm 4 mps 741 mmHg 30%
    15:00 +18°C° 0 mm 4 mps 741 mmHg 31%
    16:00 +18°C° 0 mm 3 mps 741 mmHg 33%
    17:00 +18°C° 0 mm 3 mps 741 mmHg 34%
    18:00 +16°C° 0 mm 3 mps 741 mmHg 36%
    19:00 +14°C° 0 mm 3 mps 741 mmHg 38%
    20:00 +13°C° 0 mm 3 mps 741 mmHg 40%
    21:00 +13°C° 0 mm 3 mps 741 mmHg 42%
    22:00 +12°C° 0 mm 3 mps 741 mmHg 43%
    23:00 +12°C° 0 mm 3 mps 741 mmHg 45%

    Tomorrow, 21 August, Wednesday

    Time Temperature Precipitation Wind Pressure Humidity
    00:00 +11°C° 0 mm 4 mps 741 mmHg 47%
    01:00 +11°C° 0 mm 4 mps 740 mmHg 49%
    02:00 +10°C° 0 mm 4 mps 740 mmHg 51%
    03:00 +10°C° 0 mm 4 mps 740 mmHg 52%
    04:00 +8°C° 0 mm 4 mps 740 mmHg 53%
    05:00 +8°C° 0 mm 4 mps 740 mmHg 54%
    06:00 +10°C° 0 mm 4 mps 740 mmHg 53%
    07:00 +9°C° 0 mm 5 mps 740 mmHg 51%
    08:00 +10°C° 0 mm 5 mps 740 mmHg 49%
    09:00 +13°C° 0 mm 6 mps 740 mmHg 44%
    10:00 +15°C° 0 mm 6 mps 740 mmHg 38%
    11:00 +17°C° 0 mm 6 mps 740 mmHg 32%
    12:00 +19°C° 0 mm 6 mps 739 mmHg 29%
    13:00 +19°C° 0 mm 5 mps 738 mmHg 26%
    14:00 +20°C° 0 mm 5 mps 738 mmHg 23%
    15:00 +20°C° 0 mm 4 mps 737 mmHg 25%
    16:00 +19°C° 0 mm 4 mps 737 mmHg 27%
    17:00 +19°C° 0 mm 3 mps 737 mmHg 28%
    18:00 +18°C° 0 mm 3 mps 737 mmHg 30%
    19:00 +17°C° 0 mm 4 mps 737 mmHg 31%
    20:00 +15°C° 0 mm 4 mps 737 mmHg 32%
    21:00 +14°C° 0 mm 4 mps 737 mmHg 34%
    22:00 +13°C° 0 mm 4 mps 737 mmHg 36%
    23:00 +13°C° 0 mm 5 mps 737 mmHg 37%

    Day after tomorrow, 22 August, Thursday

    Time Temperature Precipitation Wind Pressure Humidity
    00:00 +12°C° 0 mm 5 mps 736 mmHg 38%
    01:00 +12°C° 0 mm 5 mps 736 mmHg 39%
    02:00 +12°C° 0 mm 5 mps 736 mmHg 39%
    03:00 +10°C° 0 mm 5 mps 736 mmHg 40%
    04:00 +10°C° 0 mm 5 mps 736 mmHg 40%
    05:00 +9°C° 0 mm 5 mps 736 mmHg 41%
    06:00 +10°C° 0 mm 6 mps 736 mmHg 40%
    07:00 +11°C° 0 mm 7 mps 736 mmHg 38%
    08:00 +12°C° 0 mm 7 mps 736 mmHg 37%
    09:00 +15°C° 0 mm 8 mps 735 mmHg 32%
    10:00 +17°C° 0 mm 8 mps 735 mmHg 28%
    11:00 +19°C° 0 mm 9 mps 735 mmHg 23%
    12:00 +21°C° 0 mm 8 mps 734 mmHg 22%
    13:00 +22°C° 0 mm 8 mps 733 mmHg 21%
    14:00 +22°C° 0 mm 8 mps 733 mmHg 19%
    15:00 +22°C° 0 mm 7 mps 732 mmHg 21%
    16:00 +21°C° 0 mm 5 mps 732 mmHg 22%
    17:00 +20°C° 0 mm 4 mps 732 mmHg 24%
    18:00 +19°C° 0 mm 4 mps 732 mmHg 25%
    19:00 +18°C° 0 mm 4 mps 732 mmHg 25%
    20:00 +17°C° 0 mm 4 mps 732 mmHg 26%
    21:00 +17°C° 0 mm 4 mps 731 mmHg 26%
    22:00 +15°C° 0 mm 5 mps 731 mmHg 25%
    23:00 +15°C° 0 mm 5 mps 731 mmHg 25%

    23 August, Friday

    Time Temperature Precipitation Wind Pressure Humidity
    00:00 +15°C° 0 mm 5 mps 730 mmHg 25%
    01:00 +14°C° 0 mm 5 mps 730 mmHg 25%
    02:00 +14°C° 0 mm 6 mps 729 mmHg 25%
    03:00 +14°C° 0 mm 6 mps 730 mmHg 27%
    04:00 +13°C° 0 mm 5 mps 730 mmHg 29%
    05:00 +13°C° 0 mm 5 mps 730 mmHg 31%
    06:00 +13°C° 0 mm 5 mps 730 mmHg 40%
    07:00 +14°C° 0 mm 5 mps 730 mmHg 48%
    08:00 +14°C° 0 mm 4 mps 731 mmHg 56%
    09:00 +14°C° 0 mm 6 mps 731 mmHg 62%
    10:00 +14°C° 0 mm 7 mps 731 mmHg 68%
    11:00 +12°C° 0 mm 8 mps 732 mmHg 74%
    12:00 +14°C° 0 mm 7 mps 732 mmHg 68%
    13:00 +14°C° 0 mm 6 mps 731 mmHg 63%
    14:00 +14°C° 0 mm 5 mps 731 mmHg 57%
    15:00 +14°C° 0 mm 5 mps 732 mmHg 52%
    16:00 +15°C° 0 mm 5 mps 732 mmHg 46%
    17:00 +15°C° 0 mm 5 mps 733 mmHg 41%
    18:00 +13°C° 0 mm 6 mps 734 mmHg 47%
    19:00 +10°C° 0 mm 6 mps 734 mmHg 54%
    20:00 +8°C° 0 mm 7 mps 735 mmHg 60%
    21:00 +8°C° 0 mm 7 mps 735 mmHg 61%
    22:00 +7°C° 0 mm 6 mps 736 mmHg 61%
    23:00 +6°C° 0 mm 5 mps 736 mmHg 62%

    24 August, Saturday

    Time Temperature Precipitation Wind Pressure Humidity
    00:00 +6°C° 0 mm 5 mps 736 mmHg 65%
    01:00 +5°C° 0 mm 4 mps 736 mmHg 68%
    02:00 +5°C° 0 mm 4 mps 736 mmHg 71%
    03:00 +4°C° 0 mm 4 mps 736 mmHg 74%
    04:00 +4°C° 0 mm 4 mps 736 mmHg 77%
    05:00 +3°C° 0 mm 3 mps 737 mmHg 80%
    06:00 +4°C° 0 mm 4 mps 737 mmHg 77%
    07:00 +5°C° 0 mm 5 mps 737 mmHg 73%
    08:00 +5°C° 0 mm 5 mps 738 mmHg 69%
    09:00 +7°C° 0 mm 5 mps 738 mmHg 61%
    10:00 +8°C° 0 mm 5 mps 738 mmHg 52%
    11:00 +10°C° 0 mm 5 mps 737 mmHg 43%
    12:00 +12°C° 0 mm 5 mps 737 mmHg 40%
    13:00 +13°C° 0 mm 5 mps 736 mmHg 36%
    14:00 +13°C° 0 mm 5 mps 735 mmHg 33%
    15:00 +13°C° 0 mm 5 mps 735 mmHg 34%
    16:00 +13°C° 0 mm 4 mps 735 mmHg 35%
    17:00 +13°C° 0 mm 4 mps 735 mmHg 36%
    18:00 +12°C° 0 mm 4 mps 736 mmHg 41%
    19:00 +11°C° 0 mm 4 mps 736 mmHg 46%
    20:00 +10°C° 0 mm 4 mps 737 mmHg 51%
    21:00 +9°C° 0 mm 5 mps 737 mmHg 55%
    22:00 +8°C° 0 mm 5 mps 737 mmHg 58%
    23:00 +7°C° 0 mm 6 mps 737 mmHg 62%

    25 August, Sunday

    Time Temperature Precipitation Wind Pressure Humidity
    00:00 +7°C° 0 mm 6 mps 736 mmHg 65%
    01:00 +5°C° 0 mm 6 mps 736 mmHg 67%
    02:00 +5°C° 0 mm 7 mps 736 mmHg 70%
    03:00 +5°C° 0 mm 6 mps 735 mmHg 72%
    04:00 +4°C° 0 mm 6 mps 735 mmHg 75%
    05:00 +4°C° 0 mm 6 mps 735 mmHg 77%
    06:00 +4°C° 0 mm 6 mps 736 mmHg 75%
    07:00 +5°C° 0 mm 6 mps 736 mmHg 73%
    08:00 +5°C° 0 mm 6 mps 736 mmHg 71%
    09:00 +8°C° 0 mm 6 mps 736 mmHg 64%
    10:00 +10°C° 0 mm 5 mps 736 mmHg 56%
    11:00 +12°C° 0 mm 5 mps 736 mmHg 49%
    12:00 +13°C° 0 mm 4 mps 735 mmHg 46%
    13:00 +14°C° 0 mm 4 mps 734 mmHg 44%
    14:00 +14°C° 0 mm 3 mps 734 mmHg 42%
    15:00 +14°C° 0 mm 3 mps 734 mmHg 42%
    16:00 +14°C° 0 mm 3 mps 734 mmHg 42%
    17:00 +14°C° 0 mm 3 mps 734 mmHg 43%
    18:00 +14°C° 0 mm 3 mps 734 mmHg 45%
    19:00 +13°C° 0 mm 3 mps 735 mmHg 47%
    20:00 +13°C° 0 mm 3 mps 735 mmHg 49%
    21:00 +12°C° 0 mm 3 mps 735 mmHg 49%
    22:00 +12°C° 0 mm 4 mps 735 mmHg 50%
    23:00 +12°C° 0 mm 4 mps 735 mmHg 51%
    Show more